COSMOS 2385

Satellite information

Favourite Embed

Satellite Type and Status

PAYLOADIN ORBIT

Key statistics

Satellite COSMOS 2385 at a glance.

Uptime

8717

Days in orbit

Revolutions

≈ 12.6

Per day

Orbit

LEO

Low Earth Orbit

Inclination

82.5

Latest

Satellite identification and parameters

Extended collection of information and parameters for COSMOS 2385.

Object identification

Identified? True

Debris? False

Object name: COSMOS 2385

International designator: 2001-058B

Object number (NORAD): 27056

Object ID (CCSDS): 27056

Country: COMMONWEALTH OF INDEPENDENT STATES (CIS)

Current information (Y/N): Y

RCS size: MEDIUM

Orbital parameters

Period: 114.235 minutes

Inclination: 82.541 deg

SMA: 7798.774 km

Apoapsis: 1425.571 km

Periapsis: 1415.707 km

RAAN: 0.7397 deg

Eccentricy: 0.0006324

Argument of periapsis: 22.6311 deg

Mean anomaly: 150.8721 deg

Mean motion: 12.60559293 rev/day

Mean motion (dot): 0.00000027 rev/day2

B* drag term: 0.000091807 1/REarth

Two-line elements (TLE)

Creation date: Nov. 8, 2025, 11:16 p.m.

Reference frame: TEME

Reference center: EARTH

Epoch: Nov. 8, 2025, 9:49 p.m. UTC

TLE line 0: 0 COSMOS 2385

TLE line 1: 1 27056U 01058B 25312.90959083 .00000027 00000-0 91807-4 0 9998

TLE line 2: 2 27056 82.5410 0.7397 0006324 22.6311 150.8721 12.60559293 98023

Live tracking on map

Real-time ground track for satellite COSMOS 2385.

In-orbit conjunctions

There are no conjunctions computed for COSMOS 2385, at the moment. Check back to stay up to date, as we update our databases every day.

Go to all conjunctions

Associated space launch

Gonets- satellite were the civilian derivate of the military Strela-3 satellite system. The Gonets system was offered to support international health organizations to meet their global communications needs for the transfer of medical data and records to remote sites. Strela-3 was second generation of strategic store-dump military communications satellite. Development of this generation to replace the first generation Strela-1M and Strela-2M satellites began in 1973.

COSMOS 2385 was lifted into orbit during the mission ‘Tsiklon-3 | Strela-3 128 to 130 & Gonets 10 to 12’, on board a Tsiklon-3 space rocket.

The launch took place on Dec. 28, 2001, 3:24 a.m. from 32/1.

For more information about the launch, click the button.

Launch to space Tsiklon-3 | Strela-3 128 to 130 & Gonets 10 to 12
Tsiklon-3 | Strela-3 128 to 130 & Gonets 10 to 12

Agency: N/A

Status: Launch Successful

Launch date: Dec. 28, 2001, 3:24 a.m. UTC

Rocket: Tsiklon-3

Launch pad: 32/1

Location: Plesetsk Cosmodrome, Russian Federation

...

Latest news about this satellite

There are no fresh news available about this satellite. Check back as we update our databases every day.


Newsletter sign-up

Weekly statistics, charts and insights to help you stay on top of the space industry.